AAL143 KLAX-PHNL

Flight info

Callsign AAL143
Flight time N/A
Altitude 32000
Route SUMMR2 DINTY DUETS 3335N12855W DADIE R576 DIALO/N0453F340 R576 DENNS MAGGI3
Aircraft B738/M-SDE2E3FGHIRWXY/LB1

Departure

Time 2026-04-26 20:05
Airport Los Angeles International Airport (KLAX)

Arrival

Time N/A
Airport Daniel K. Inouye International Airport (PHNL)
Time Latitude Longitude Altitude Speed Heading
2026-04-26 19:35 33.94044 -118.40610 120 ft 0 kts 261°
2026-04-26 19:53 33.94044 -118.40609 125 ft 2 kts 261°
2026-04-26 19:53 33.94047 -118.40590 119 ft 2 kts 261°
2026-04-26 19:53 33.94049 -118.40570 120 ft 2 kts 255°
2026-04-26 19:53 33.94060 -118.40557 122 ft 2 kts 180°
2026-04-26 19:54 33.94075 -118.40559 121 ft 1 kts 172°
2026-04-26 19:54 33.94076 -118.40559 121 ft 0 kts 172°
2026-04-26 19:57 33.94075 -118.40559 121 ft 1 kts 173°
2026-04-26 19:57 33.94067 -118.40558 125 ft 1 kts 173°
2026-04-26 19:58 33.94059 -118.40557 121 ft 2 kts 173°
2026-04-26 19:58 33.94040 -118.40554 123 ft 3 kts 174°
2026-04-26 19:58 33.94019 -118.40551 123 ft 3 kts 174°
2026-04-26 19:58 33.94000 -118.40549 123 ft 3 kts 170°
2026-04-26 19:59 33.93981 -118.40545 122 ft 3 kts 172°
2026-04-26 19:59 33.93961 -118.40542 122 ft 3 kts 173°
2026-04-26 19:59 33.93943 -118.40539 122 ft 3 kts 174°
2026-04-26 19:59 33.93924 -118.40537 122 ft 3 kts 175°
2026-04-26 20:00 33.93895 -118.40533 121 ft 7 kts 172°
2026-04-26 20:00 33.93836 -118.40516 123 ft 11 kts 140°
2026-04-26 20:00 33.93834 -118.40430 124 ft 11 kts 83°
2026-04-26 20:00 33.93845 -118.40328 125 ft 15 kts 83°
2026-04-26 20:01 33.93859 -118.40189 125 ft 18 kts 83°
2026-04-26 20:01 33.93873 -118.40044 125 ft 17 kts 82°
2026-04-26 20:01 33.93890 -118.39905 124 ft 16 kts 82°
2026-04-26 20:01 33.93902 -118.39770 125 ft 16 kts 84°
2026-04-26 20:02 33.93915 -118.39641 125 ft 15 kts 83°
2026-04-26 20:02 33.93929 -118.39503 123 ft 18 kts 82°
2026-04-26 20:02 33.93947 -118.39332 125 ft 23 kts 82°
2026-04-26 20:02 33.93961 -118.39195 125 ft 26 kts 83°
2026-04-26 20:03 33.93993 -118.38880 125 ft 29 kts 83°
2026-04-26 20:03 33.94016 -118.38647 123 ft 27 kts 83°
2026-04-26 20:03 33.94039 -118.38428 122 ft 26 kts 83°
2026-04-26 20:03 33.94060 -118.38221 124 ft 24 kts 83°
2026-04-26 20:04 33.94077 -118.38066 124 ft 10 kts 83°
2026-04-26 20:04 33.94051 -118.38004 124 ft 9 kts 157°
2026-04-26 20:04 33.93993 -118.38011 124 ft 9 kts 229°
2026-04-26 20:04 33.93979 -118.38084 124 ft 11 kts 264°
2026-04-26 20:05 33.93954 -118.38324 120 ft 59 kts 263°
2026-04-26 20:05 33.93878 -118.39065 125 ft 117 kts 263°
2026-04-26 20:05 33.93754 -118.40233 217 ft 156 kts 260°
2026-04-26 20:05 33.93617 -118.41546 852 ft 162 kts 261°
2026-04-26 20:06 33.93481 -118.42858 1713 ft 156 kts 262°
2026-04-26 20:06 33.93352 -118.44179 2248 ft 170 kts 264°
2026-04-26 20:06 33.93207 -118.45700 2449 ft 194 kts 264°
2026-04-26 20:06 33.93060 -118.47381 2747 ft 205 kts 265°
2026-04-26 20:07 33.92912 -118.49143 3094 ft 218 kts 265°
2026-04-26 20:07 33.92753 -118.51052 3270 ft 239 kts 265°
2026-04-26 20:07 33.92586 -118.53068 3889 ft 243 kts 265°
2026-04-26 20:07 33.92419 -118.55092 4695 ft 243 kts 265°
2026-04-26 20:08 33.92249 -118.57144 5367 ft 247 kts 265°
2026-04-26 20:08 33.92078 -118.59193 6159 ft 249 kts 264°
2026-04-26 20:08 33.91905 -118.61278 6870 ft 249 kts 265°
2026-04-26 20:08 33.91751 -118.63385 7483 ft 254 kts 268°
2026-04-26 20:09 33.91724 -118.65503 8237 ft 254 kts 270°
2026-04-26 20:09 33.91728 -118.67651 8884 ft 258 kts 271°
2026-04-26 20:09 33.91734 -118.69812 9611 ft 259 kts 271°
2026-04-26 20:09 33.91735 -118.71986 10258 ft 262 kts 271°
2026-04-26 20:10 33.91733 -118.74238 10569 ft 278 kts 271°
2026-04-26 20:10 33.91727 -118.76652 10748 ft 297 kts 271°
2026-04-26 20:10 33.91717 -118.79170 11220 ft 304 kts 271°
2026-04-26 20:10 33.91704 -118.81730 11826 ft 308 kts 271°
2026-04-26 20:11 33.91703 -118.84316 11996 ft 311 kts 272°
2026-04-26 20:11 33.91776 -118.86946 12431 ft 320 kts 273°
2026-04-26 20:11 33.91873 -118.89705 12546 ft 338 kts 273°
2026-04-26 20:12 33.92061 -118.95518 13309 ft 356 kts 273°
2026-04-26 20:12 33.92150 -118.98537 13945 ft 358 kts 272°
2026-04-26 20:12 33.92445 -119.01511 14462 ft 361 kts 286°
2026-04-26 20:12 33.93479 -119.04273 14963 ft 365 kts 300°
2026-04-26 20:13 33.94830 -119.06873 15508 ft 368 kts 301°
2026-04-26 20:13 33.96229 -119.09475 15968 ft 372 kts 301°
2026-04-26 20:13 33.97629 -119.12116 16453 ft 376 kts 301°
2026-04-26 20:13 33.99005 -119.14760 16942 ft 379 kts 301°
2026-04-26 20:14 34.00421 -119.17509 17427 ft 382 kts 300°
2026-04-26 20:14 34.01543 -119.20365 17880 ft 385 kts 288°
2026-04-26 20:14 34.02372 -119.23487 18417 ft 386 kts 287°
2026-04-26 20:14 34.03162 -119.26587 18875 ft 388 kts 286°
2026-04-26 20:15 34.03960 -119.29716 19234 ft 392 kts 287°
2026-04-26 20:15 34.04760 -119.32825 19664 ft 394 kts 287°
2026-04-26 20:15 34.05592 -119.36021 20143 ft 395 kts 287°
2026-04-26 20:15 34.06421 -119.39184 20554 ft 397 kts 287°
2026-04-26 20:16 34.07250 -119.42331 20940 ft 400 kts 287°
2026-04-26 20:16 34.08097 -119.45540 21319 ft 403 kts 287°
2026-04-26 20:16 34.08951 -119.48769 21724 ft 405 kts 287°
2026-04-26 20:16 34.09808 -119.52015 22129 ft 407 kts 287°
2026-04-26 20:17 34.10667 -119.55269 22513 ft 409 kts 287°
2026-04-26 20:17 34.11530 -119.58543 22900 ft 411 kts 287°
2026-04-26 20:17 34.12396 -119.61836 23289 ft 412 kts 286°
2026-04-26 20:17 34.12983 -119.64069 23540 ft 414 kts 286°
2026-04-26 20:18 34.14139 -119.68472 23883 ft 419 kts 287°
2026-04-26 20:18 34.15023 -119.71844 24117 ft 423 kts 287°
2026-04-26 20:18 34.15910 -119.75229 24438 ft 423 kts 287°
2026-04-26 20:18 34.16797 -119.78620 24777 ft 424 kts 287°
2026-04-26 20:19 34.17684 -119.82018 25077 ft 425 kts 287°
2026-04-26 20:19 34.18575 -119.85433 25372 ft 427 kts 286°
2026-04-26 20:19 34.19468 -119.88858 25663 ft 428 kts 286°
2026-04-26 20:19 34.20362 -119.92295 25950 ft 429 kts 286°
2026-04-26 20:20 34.21257 -119.95742 26238 ft 431 kts 286°
2026-04-26 20:20 34.22155 -119.99200 26512 ft 432 kts 286°
2026-04-26 20:20 34.23055 -120.02673 26785 ft 434 kts 286°
2026-04-26 20:20 34.23956 -120.06153 27048 ft 435 kts 286°
2026-04-26 20:21 34.24859 -120.09646 27337 ft 436 kts 286°
2026-04-26 20:21 34.25762 -120.13147 27597 ft 437 kts 286°
2026-04-26 20:21 34.26668 -120.16658 27907 ft 437 kts 286°
2026-04-26 20:21 34.27568 -120.20155 28312 ft 435 kts 286°
2026-04-26 20:22 34.28464 -120.23639 28744 ft 432 kts 286°
2026-04-26 20:22 34.29353 -120.27099 29136 ft 430 kts 286°
2026-04-26 20:22 34.30238 -120.30550 29484 ft 430 kts 285°
2026-04-26 20:22 34.31123 -120.34006 29833 ft 429 kts 285°
2026-04-26 20:23 34.32002 -120.37441 30178 ft 427 kts 285°
2026-04-26 20:23 34.32877 -120.40870 30476 ft 426 kts 284°
2026-04-26 20:23 34.33419 -120.44371 30717 ft 423 kts 271°
2026-04-26 20:23 34.33251 -120.47901 31005 ft 420 kts 261°
2026-04-26 20:24 34.32553 -120.51322 31289 ft 419 kts 249°
2026-04-26 20:24 34.31344 -120.54531 31532 ft 419 kts 245°
2026-04-26 20:24 34.30067 -120.57697 31779 ft 419 kts 245°